Kazan, Russia

6:30 AM MSK on December 12, 2019 (GMT +0300)
Kazan

Weather History for UWKD - October, 2019

Change the Weather History Date:

Sunday, October 20, 2019

  Actual Average (WUND) Record (WUND)
Temperature  
Mean Temperature 38 °F -  
Max Temperature 42 °F - - (-1)
Min Temperature 33 °F - - (-1)
Degree Days  
Heating Degree Days 28    
Moisture  
Dew Point 33 °F    
Average Humidity 83    
Maximum Humidity 93    
Minimum Humidity 71    
Precipitation  
Precipitation 0.00 in - - ()
Sea Level Pressure  
Sea Level Pressure 30.33 in    
Wind  
Wind Speed 7 mph ()    
Max Wind Speed 16 mph    
Max Gust Speed -    
Visibility 6.1 miles    
Events Rain    
Averages and records for this station are not official NWS values.
T = Trace of Precipitation, MM = Missing Value Source: Averaged Metar Reports

Daily Weather History Graph

Daily Weather History Graph

Search for Another Location

Airport or City:

Astronomy

Oct. 20, 2019 Rise Set
Actual Time 6:22 AM MSK 4:31 PM MSK
Civil Twilight 5:44 AM MSK 5:09 PM MSK
Nautical Twilight 5:02 AM MSK 5:52 PM MSK
Astronomical Twilight 4:19 AM MSK 6:34 PM MSK
Moon 8:30 PM MSK (10/20) 1:17 PM MSK (10/20)
Length of Visible Light 11h 24m
Length of Day
10h 09m
Waning Gibbous, 62% of the Moon is Illuminated
Oct 20
Waning Gibbous
Oct 21
Last Quarter
Oct 28
New
Nov 4
First Quarter
Nov 12
Full

Hourly Weather History & Observations

Time (MSK) Temp. Windchill Dew Point Humidity Pressure Visibility Wind Dir Wind Speed Gust Speed Precip Events Conditions
12:00 AM 33 °F - 27 °F 72% 30.42 in 6 mi ESE 2.2 mph - -   Overcast
12:00 AM 33.8 °F 29.7 °F 26.6 °F 75% 30.39 in 6.2 mi East 4.5 mph - N/A   Overcast
12:30 AM 33.8 °F 29.7 °F 26.6 °F 75% 30.36 in 6.2 mi ESE 4.5 mph - N/A   Overcast
1:00 AM 33.8 °F 27.9 °F 26.6 °F 75% 30.36 in 6.2 mi ESE 6.7 mph - N/A   Overcast
1:30 AM 33.8 °F 27.9 °F 26.6 °F 75% 30.39 in 6.2 mi East 6.7 mph - N/A   Overcast
2:00 AM 33.8 °F 27.9 °F 26.6 °F 75% 30.39 in 6.2 mi East 6.7 mph - N/A   Overcast
2:30 AM 33.8 °F 29.7 °F 28.4 °F 81% 30.36 in 6.2 mi East 4.5 mph - N/A   Overcast
3:00 AM 33.8 °F 29.7 °F 28.4 °F 81% 30.36 in 6.2 mi East 4.5 mph - N/A   Overcast
3:30 AM 33.8 °F 27.9 °F 28.4 °F 81% 30.36 in 6.2 mi East 6.7 mph - N/A   Overcast
4:00 AM 33.8 °F 26.5 °F 28.4 °F 81% 30.36 in 6.2 mi ESE 8.9 mph - N/A   Overcast
5:00 AM 33.8 °F 27.9 °F 28.4 °F 81% 30.36 in 6.2 mi ESE 6.7 mph - N/A   Overcast
5:30 AM 33.8 °F 27.9 °F 28.4 °F 81% 30.36 in 6.2 mi SE 6.7 mph - N/A   Overcast
6:00 AM 33 °F - 29 °F 80% 30.41 in 6 mi SE 2.2 mph - -   Overcast
6:30 AM 33.8 °F 29.7 °F 30.2 °F 87% 30.36 in 6.2 mi SE 4.5 mph - N/A   Overcast
7:00 AM 33.8 °F 29.7 °F 30.2 °F 87% 30.39 in 6.2 mi SSE 4.5 mph - N/A   Overcast
7:30 AM 33.8 °F 29.7 °F 30.2 °F 87% 30.39 in 6.2 mi SE 4.5 mph - N/A   Overcast
8:30 AM 35.6 °F 27.7 °F 30.2 °F 81% 30.36 in 6.2 mi SSE 11.2 mph - N/A   Overcast
9:00 AM 35 °F - 29 °F 73% 30.41 in 6 mi SSE 2.2 mph - -   Overcast
9:00 AM 35.6 °F 28.7 °F 30.2 °F 81% 30.36 in 6.2 mi SSE 8.9 mph - N/A   Overcast
9:30 AM 35.6 °F 28.7 °F 30.2 °F 81% 30.36 in 6.2 mi South 8.9 mph - N/A   Overcast
10:00 AM 37.4 °F 30.9 °F 30.2 °F 75% 30.36 in 6.2 mi South 8.9 mph - N/A   Overcast
10:30 AM 37.4 °F 30.9 °F 32.0 °F 81% 30.36 in 6.2 mi South 8.9 mph - N/A   Overcast
11:00 AM 37.4 °F 29.9 °F 32.0 °F 81% 30.36 in 6.2 mi South 11.2 mph - N/A   Overcast
11:30 AM 37.4 °F 30.9 °F 32.0 °F 81% 30.36 in 6.2 mi South 8.9 mph - N/A   Overcast
12:00 PM 38 °F - 32 °F 71% 30.38 in 6 mi South 4.5 mph - -   Overcast
12:00 PM 37.4 °F 29.9 °F 32.0 °F 81% 30.36 in 6.2 mi South 11.2 mph - N/A   Overcast
12:30 PM 37.4 °F 29.9 °F 33.8 °F 87% 30.33 in 6.2 mi South 11.2 mph - N/A   Overcast
1:00 PM 37.4 °F 29.9 °F 32.0 °F 81% 30.33 in 6.2 mi South 11.2 mph - N/A   Overcast
1:30 PM 37.4 °F 29.1 °F 32.0 °F 81% 30.33 in 6.2 mi South 13.4 mph - N/A   Overcast
2:00 PM 37.4 °F 29.1 °F 33.8 °F 87% 30.33 in 6.2 mi South 13.4 mph - N/A   Overcast
2:30 PM 37.4 °F 29.1 °F 33.8 °F 87% 30.33 in 6.2 mi South 13.4 mph - N/A   Overcast
3:00 PM 38 °F - 33 °F 77% 30.36 in 6 mi SSE 4.5 mph - -   Overcast
3:00 PM 37.4 °F 29.1 °F 33.8 °F 87% 30.33 in 6.2 mi South 13.4 mph - N/A   Overcast
4:00 PM 39.2 °F 32.2 °F 33.8 °F 81% 30.30 in 6.2 mi SSE 11.2 mph - N/A   Overcast
4:30 PM 39.2 °F 31.3 °F 35.6 °F 87% 30.30 in 6.2 mi SSE 13.4 mph - N/A   Overcast
5:00 PM 39.2 °F 31.3 °F 35.6 °F 87% 30.30 in 6.2 mi South 13.4 mph - N/A   Overcast
5:30 PM 39.2 °F 31.3 °F 37.4 °F 93% 30.30 in 6.2 mi South 13.4 mph - N/A   Overcast
6:00 PM 40 °F - 37 °F 87% 30.32 in 6 mi SSE 4.5 mph - -   Overcast
6:00 PM 39.2 °F 30.6 °F 37.4 °F 93% 30.30 in 6.2 mi South 15.7 mph - N/A   Overcast
7:00 PM 41.0 °F 33.6 °F 37.4 °F 87% 30.27 in 6.2 mi South 13.4 mph - N/A   Mostly Cloudy
7:30 PM 41.0 °F 33.6 °F 37.4 °F 87% 30.27 in 6.2 mi South 13.4 mph - N/A   Mostly Cloudy
8:00 PM 41.0 °F 34.4 °F 37.4 °F 87% 30.27 in 6.2 mi South 11.2 mph - N/A   Overcast
8:30 PM 41.0 °F 34.4 °F 37.4 °F 87% 30.27 in 6.2 mi South 11.2 mph - N/A   Overcast
9:00 PM 41.0 °F 34.4 °F 39.2 °F 93% 30.27 in 6.2 mi South 11.2 mph - N/A Rain Light Rain
9:30 PM 41.0 °F 34.4 °F 39.2 °F 93% 30.24 in 6.2 mi South 11.2 mph - N/A   Overcast
10:00 PM 41.0 °F 34.4 °F 39.2 °F 93% 30.24 in 6.2 mi South 11.2 mph - N/A   Overcast
10:30 PM 42.8 °F 36.7 °F 39.2 °F 87% 30.24 in 6.2 mi South 11.2 mph - N/A   Overcast
11:00 PM 42.8 °F 36.7 °F 41.0 °F 93% 30.24 in 5.6 mi South 11.2 mph - N/A Rain Light Rain
11:30 PM 42.8 °F 36.7 °F 41.0 °F 93% 30.24 in 3.1 mi South 11.2 mph - N/A Rain Light Rain